Location: Unspecified
(64.9000°N, 0.0000°E)
Time: 17:51:07
(UTC+00:00)

Transit 2A Rocket - Pass Details

Date: 27 June 2019
Orbit: 588 x 915 km, 66.7° (Epoch: 17 July)

Event Time Altitude Azimuth Distance (km) Brightness Sun altitude
Rises 10:24:31 0° 220° (SW) 3,531 8.6 45.4°
Reaches altitude 10° 10:27:06 10° 217° (SW) 2,572 8.1 45.6°
Maximum altitude 10:32:58 58° 140° (SE) 1,005 7.8 45.9°
Drops below altitude 10° 10:38:28 10° 63° (ENE) 2,414 7.7 46.2°
Sets 10:40:50 0° 60° (ENE) 3,299 8.3 46.3°
